Overview Statistics Trail Chart Weather Telemetry Raw packets
 

This is the latest recevied weather packets stored in our database for station/object KN6WGU. If no packets are shown the sender has not sent any weather packets the latest 10 day(s).

<< 100 101 102 103 104 105 106 >>
Time Temp. Humidity Pressure Rain* Wind** Luminosity Snow
1787861264 26.67° C 67% 1007.6 hPa 0 mm - 506 W/m² -
1787860959 27.22° C 66% 1007.9 hPa 0 mm - 521 W/m² -
1787860653 26.67° C 68% 1007.9 hPa 0 mm - 528 W/m² -
1787860348 27.22° C 68% 1007.9 hPa 0 mm - 539 W/m² -
1787860044 26.67° C 68% 1007.9 hPa 0 mm - 545 W/m² -
1787859739 27.22° C 67% 1007.8 hPa 0 mm - 557 W/m² -
1787859438 27.22° C 69% 1007.8 hPa 0 mm - 564 W/m² -
1787859133 27.22° C 67% 1007.9 hPa 0 mm - 574 W/m² -
1787858830 27.22° C 65% 1007.9 hPa 0 mm - 583 W/m² -
1787858525 26.67° C 68% 1007.9 hPa 0 mm - 590 W/m² -
1787858224 26.67° C 66% 1008 hPa 0 mm - 597 W/m² -
1787857921 26.67° C 66% 1007.9 hPa 0 mm - 606 W/m² -
1787857616 26.67° C 66% 1007.9 hPa 0 mm - 609 W/m² -
1787857316 26.67° C 66% 1008 hPa 0 mm - 618 W/m² -
1787857015 26.67° C 70% 1008.1 hPa 0 mm - 620 W/m² -
1787856714 26.67° C 71% 1007.9 hPa 0 mm - 628 W/m² -
1787856409 26.11° C 71% 1008.1 hPa 0 mm - 630 W/m² -
1787856104 26.67° C 70% 1008 hPa 0 mm - 625 W/m² -
1787855799 26.11° C 71% 1008 hPa 0 mm - 642 W/m² -
1787855495 26.11° C 71% 1007.7 hPa 0 mm - 644 W/m² -
1787855193 26.11° C 71% 1008 hPa 0 mm - 646 W/m² -
1787854885 26.11° C 72% 1008.1 hPa 0 mm - 649 W/m² -
1787854585 26.11° C 72% 1007.9 hPa 0 mm - 651 W/m² -
1787854279 26.11° C 71% 1007.9 hPa 0 mm - 652 W/m² -
1787853975 26.11° C 70% 1007.8 hPa 0 mm - 657 W/m² -

* Rain latest hour (hover to see other rain measurements)
** Current wind speed in m/s (hover to see current wind gust speed)